Showing default

GHGSAT-C4, 52746

Orbit data source: Space-Track

GHGSAT-C4, 52746 is a payload satellite owned by GHG (CA) in SSO that was launched on Wed, 25 May 2022 UTC via an FALCON 9 launch vehicle from the Air Force Eastern Test Range (AFETR). Payload-class satellites include a variety of spacecraft equipped with specific instruments for various scientific and technological missions. These include communications satellites like Starlink; space stations such as the ISS; scientific satellites like the Hubble; Earth observation satellites from companies like Planet Labs, Umbra, and HawkEye 360; GPS; miniature CubeSats for education and research; and military/defense satellites.

Loading next visibility...
Identifier
52746, 2022-057Q
Orbit
SSO
Country
Flag of CACA
Related business
Manufacturer
UTIAS-SFL
Mission
Operational Commercial Earth Obs Sci
Bus & Motor
NEMO-V1, Unknown motor
Mass
15 kg wet, 15 kg dry
Launch date (UTC)
2022-05-25 (4 years ago)
Launch vehicle
FALCON 9
Launch site
Air Force Eastern Test Range (AFETR)
Object type
Payload
Rocket body
Debris
Shape & HBR
Box, 1.0 m
Radar Cross Section
0.100 m², Medium (>0.1 m² and < 1m²)

Expand to show TLE details & history
Last TLE update: 17 hours ago

TLE from 17 hours ago
0 GHGSAT-C4
1 52746U 22057Q   25348.92282806  .00006953  00000-0  23192-3 0  9992
2 52746  97.6262 122.4104 0007451  48.4699 311.7179 15.31382750197314
Epoch: 2025-12-14T22:08Z
TLE epoch observation values (Epoch: 2025-12-14T22:08:52.344Z)
Latitude
-0.00009°
Longitude
66.36352°
Altitude
471.39 km
Speed
7.632 km/s
True Right ascension
08h 09m 38s
True Declination
0° 00' 00"
Sunlit
Object was in full shadow at epoch
Visualization orbit readout
Latitude
Unknown
Longitude
Unknown
Altitude
Unknown
Speed
Unknown
Apparent Right ascension
Unknown
Apparent Declination
Unknown
Sunlit
N/A
Visualization observer readout
Local Sidereal Time
13:18:50
Azimuth
Unknown
Elevation
Unknown
Doppler factor
Unknown
Orbital elements
Apogee altitude
473.748 km
Perigee altitude
463.545 km
Semi-major axis
6,846.783 km
Eccentricity
0.00075
Inclination
97.6262°
RAAN
122.4104°
Arg. of periapsis
48.4699°
True anomaly
311.65413°
Mean anomaly
311.7179°
Eccentric anomaly
311.68602°
Mean motion
3.83101 °/min
Orbital period
93.97 mins
BSTAR
0.00023192
Loading maneuver chart data...
Computing Atmospheric mass density...

Documentation

Showing up to 5 results
|